TimePST,TemperatureF,Dew PointF,Humidity,Sea Level PressureIn,VisibilityMPH,Wind Direction,Wind SpeedMPH,Gust SpeedMPH,PrecipitationIn,Events,Conditions,WindDirDegrees,DateUTC
12:58 AM,47.3,47.1,99,29.97,6.0,North,2.3,-,N/A,,Clear,350,2012-11-08 08:58:00
1:58 AM,46.9,46.6,99,29.96,6.0,East,1.2,-,N/A,,Partly Cloudy,80,2012-11-08 09:58:00
2:22 AM,48.2,46.4,93,29.98,4.0,East,3.5,-,N/A,,Mostly Cloudy,90,2012-11-08 10:22:00
2:33 AM,50.0,50.0,100,29.98,2.0,East,3.5,-,N/A,,Mostly Cloudy,100,2012-11-08 10:33:00
2:43 AM,48.2,48.2,100,29.99,1.5,SSE,6.9,-,N/A,,Mostly Cloudy,150,2012-11-08 10:43:00
2:53 AM,50.0,50.0,100,30.00,1.0,SE,5.8,-,N/A,,Mostly Cloudy,140,2012-11-08 10:53:00
2:58 AM,50.0,50.0,100,29.98,0.5,SE,4.6,-,N/A,Fog,Fog,140,2012-11-08 10:58:00
3:18 AM,50.0,50.0,100,30.01,0.8,SW,2.3,-,N/A,,Mist,220,2012-11-08 11:18:00
3:28 AM,51.8,51.8,100,30.02,1.5,SW,3.5,-,N/A,,Overcast,220,2012-11-08 11:28:00
3:33 AM,51.8,51.8,100,30.02,2.5,SSW,2.3,-,N/A,,Overcast,200,2012-11-08 11:33:00
3:48 AM,51.8,51.8,100,30.02,1.5,Calm,Calm,-,N/A,,Overcast,0,2012-11-08 11:48:00
3:58 AM,52.0,52.0,100,30.01,1.2,Calm,Calm,-,N/A,,Overcast,0,2012-11-08 11:58:00
4:05 AM,51.8,51.8,100,30.04,1.0,Calm,Calm,-,N/A,,Light Drizzle,0,2012-11-08 12:05:00
4:25 AM,53.6,53.6,100,30.06,1.0,SSE,2.3,-,N/A,,Light Drizzle,160,2012-11-08 12:25:00
4:58 AM,53.1,53.1,100,30.06,2.0,Calm,Calm,-,0.01,,Light Drizzle,20,2012-11-08 12:58:00
5:08 AM,53.6,53.6,100,30.08,2.5,Variable,1.2,-,N/A,,Light Drizzle,0,2012-11-08 13:08:00
5:13 AM,53.6,53.6,100,30.08,3.0,East,3.5,-,N/A,,Light Drizzle,80,2012-11-08 13:13:00
5:33 AM,53.6,53.6,100,30.06,3.0,East,6.9,-,N/A,Rain,Light Rain,80,2012-11-08 13:33:00
5:38 AM,53.6,53.6,100,30.06,3.0,ENE,8.1,-,N/A,Rain,Light Rain,70,2012-11-08 13:38:00
5:43 AM,53.6,53.6,100,30.06,3.0,East,8.1,-,N/A,Rain,Light Rain,80,2012-11-08 13:43:00
5:53 AM,53.6,53.6,100,30.05,4.0,ENE,6.9,-,N/A,Rain,Light Rain,70,2012-11-08 13:53:00
5:58 AM,53.6,53.6,100,30.03,4.0,ENE,9.2,-,0.04,Rain,Light Rain,60,2012-11-08 13:58:00
6:08 AM,53.6,53.6,100,30.04,4.0,ENE,6.9,-,N/A,Rain,Light Rain,70,2012-11-08 14:08:00
6:18 AM,53.6,53.6,100,30.03,4.0,ENE,4.6,-,N/A,Rain,Light Rain,70,2012-11-08 14:18:00
6:23 AM,53.6,53.6,100,30.02,5.0,ENE,2.3,-,N/A,Rain,Light Rain,70,2012-11-08 14:23:00
6:28 AM,53.6,53.6,100,30.02,6.0,ESE,4.6,-,N/A,Rain,Light Rain,110,2012-11-08 14:28:00
6:49 AM,53.6,53.6,100,29.98,10.0,East,12.7,-,N/A,,Mostly Cloudy,100,2012-11-08 14:49:00
6:58 AM,54.3,54.3,100,30.00,10.0,SE,8.1,-,0.03,,Mostly Cloudy,130,2012-11-08 14:58:00
7:58 AM,55.4,55.2,99,29.96,10.0,Calm,Calm,-,N/A,,Mostly Cloudy,0,2012-11-08 15:58:00
8:58 AM,57.6,56.7,97,29.97,10.0,WSW,2.3,-,N/A,,Mostly Cloudy,240,2012-11-08 16:58:00
9:58 AM,60.8,56.8,87,29.98,10.0,West,5.8,-,N/A,,Mostly Cloudy,260,2012-11-08 17:58:00
10:58 AM,62.4,54.9,76,29.96,10.0,NNW,4.6,-,N/A,,Mostly Cloudy,330,2012-11-08 18:58:00
11:58 AM,63.9,53.1,68,29.96,10.0,NW,8.1,-,N/A,,Mostly Cloudy,310,2012-11-08 19:58:00
12:58 PM,65.1,52.2,63,29.91,10.0,NNW,9.2,-,N/A,,Scattered Clouds,330,2012-11-08 20:58:00
1:58 PM,65.1,52.0,62,29.90,10.0,Variable,5.8,-,N/A,,Mostly Cloudy,0,2012-11-08 21:58:00
2:58 PM,63.5,53.4,70,29.89,10.0,WNW,8.1,-,N/A,,Overcast,300,2012-11-08 22:58:00
3:58 PM,61.9,53.6,74,29.88,10.0,WNW,9.2,-,N/A,,Mostly Cloudy,300,2012-11-08 23:58:00
4:23 PM,60.8,55.4,82,29.89,10.0,WNW,5.8,-,N/A,,Overcast,300,2012-11-09 00:23:00
4:58 PM,60.3,55.2,83,29.88,10.0,WNW,6.9,-,N/A,,Overcast,300,2012-11-09 00:58:00
5:08 PM,59.0,55.4,88,29.89,10.0,WNW,5.8,-,N/A,Rain,Light Rain,300,2012-11-09 01:08:00
5:19 PM,59.0,55.4,88,29.89,10.0,NW,6.9,-,N/A,,Overcast,310,2012-11-09 01:19:00
5:40 PM,59.0,57.2,94,29.89,10.0,NW,5.8,-,N/A,Rain,Light Rain,310,2012-11-09 01:40:00
5:48 PM,59.0,57.2,94,29.89,10.0,NW,5.8,-,N/A,Rain,Light Rain,310,2012-11-09 01:48:00
5:58 PM,58.5,58.1,99,29.88,6.0,WNW,4.6,-,0.00,Rain,Light Rain,290,2012-11-09 01:58:00
6:11 PM,57.2,57.2,100,29.89,10.0,West,3.5,-,N/A,,Overcast,270,2012-11-09 02:11:00
6:25 PM,57.2,57.2,100,29.89,10.0,WNW,1.2,-,N/A,Rain,Light Rain,300,2012-11-09 02:25:00
6:47 PM,59.0,57.2,94,29.88,9.0,Variable,2.3,-,N/A,Rain,Light Rain,0,2012-11-09 02:47:00
6:58 PM,58.1,57.9,99,29.88,10.0,SSE,4.6,-,0.01,Rain,Light Rain,160,2012-11-09 02:58:00
7:52 PM,57.2,57.2,100,29.89,10.0,SSE,10.4,-,N/A,,Overcast,160,2012-11-09 03:52:00
7:58 PM,57.2,57.0,99,29.88,10.0,South,8.1,-,0.00,,Overcast,170,2012-11-09 03:58:00
8:13 PM,57.2,57.2,100,29.89,6.0,South,8.1,-,N/A,,Light Drizzle,170,2012-11-09 04:13:00
8:28 PM,57.2,57.2,100,29.89,10.0,SSE,8.1,-,N/A,,Overcast,150,2012-11-09 04:28:00
8:34 PM,57.2,57.2,100,29.89,10.0,SSE,8.1,-,N/A,,Overcast,150,2012-11-09 04:34:00
8:58 PM,57.0,57.0,100,29.89,7.0,South,5.8,-,0.00,,Overcast,170,2012-11-09 04:58:00
9:13 PM,57.2,57.2,100,29.89,4.0,South,5.8,-,N/A,,Overcast,180,2012-11-09 05:13:00
9:17 PM,57.2,57.2,100,29.89,1.5,South,4.6,-,N/A,,Overcast,180,2012-11-09 05:17:00
9:33 PM,55.4,55.4,100,29.90,7.0,West,4.6,-,N/A,,Overcast,280,2012-11-09 05:33:00
9:43 PM,55.4,55.4,100,29.90,4.0,WNW,4.6,-,N/A,,Light Drizzle,290,2012-11-09 05:43:00
9:58 PM,55.4,55.4,100,29.89,3.0,WNW,5.8,-,0.00,,Light Drizzle,300,2012-11-09 05:58:00
10:58 PM,55.2,55.2,100,29.88,4.0,WNW,5.8,-,0.00,,Light Drizzle,290,2012-11-09 06:58:00
11:11 PM,55.4,55.4,100,29.89,2.0,WNW,4.6,-,N/A,Rain,Light Rain,290,2012-11-09 07:11:00
11:58 PM,53.2,53.2,100,29.89,2.5,WNW,9.2,-,0.02,Rain,Light Rain,300,2012-11-09 07:58:00